Tabellarische Ansicht des 6.8.2012


Die einzelnen Werte des Tages

Uhrzeit Temperatur Luftdruck Luftfeuchte Wind Hi-Wind Taupunkt THW Index Wind Chill Heat Index Solar- strahlung Regen

00:00

17.7 C

1004.5 hpa

86 %

0.0 km/h aus 108

1.6 km/h aus SE

15.3 C

18.1 C

17.7 C

18.1 C

0 W/m

0.00 mm

00:05

17.7 C

1004.5 hpa

86 %

0.0 km/h aus 104

3.2 km/h aus SE

15.3 C

18.1 C

17.7 C

18.1 C

0 W/m

0.00 mm

00:10

17.7 C

1004.5 hpa

86 %

0.0 km/h aus 106

3.2 km/h aus SE

15.3 C

18.1 C

17.7 C

18.1 C

0 W/m

0.00 mm

00:15

17.8 C

1004.2 hpa

86 %

1.6 km/h aus 111

3.2 km/h aus SE

15.4 C

18.1 C

17.8 C

18.1 C

0 W/m

0.00 mm

00:20

17.8 C

1004.2 hpa

85 %

1.6 km/h aus 111

3.2 km/h aus SE

15.3 C

18.2 C

17.8 C

18.2 C

0 W/m

0.00 mm

00:25

17.9 C

1004.2 hpa

85 %

1.6 km/h aus 111

4.8 km/h aus SE

15.3 C

18.2 C

17.9 C

18.2 C

0 W/m

0.00 mm

00:30

17.9 C

1004.3 hpa

85 %

1.6 km/h aus 108

4.8 km/h aus SE

15.3 C

18.2 C

17.9 C

18.2 C

0 W/m

0.00 mm

00:35

18.0 C

1004.3 hpa

85 %

3.2 km/h aus 109

8.0 km/h aus SE

15.4 C

18.4 C

18.0 C

18.4 C

0 W/m

0.00 mm

00:40

18.1 C

1004.3 hpa

85 %

4.8 km/h aus 110

11.3 km/h aus ESE

15.5 C

18.4 C

18.1 C

18.4 C

0 W/m

0.00 mm

00:45

18.2 C

1004.3 hpa

85 %

6.4 km/h aus 107

14.5 km/h aus SE

15.6 C

18.6 C

18.2 C

18.6 C

0 W/m

0.00 mm

00:50

18.3 C

1004.3 hpa

84 %

4.8 km/h aus 110

9.7 km/h aus ESE

15.5 C

18.7 C

18.3 C

18.7 C

0 W/m

0.00 mm

00:55

18.3 C

1004.3 hpa

84 %

1.6 km/h aus 114

6.4 km/h aus ESE

15.5 C

18.7 C

18.3 C

18.7 C

0 W/m

0.00 mm

01:00

18.2 C

1004.2 hpa

84 %

1.6 km/h aus 112

4.8 km/h aus ESE

15.4 C

18.6 C

18.2 C

18.6 C

0 W/m

0.00 mm

01:05

18.2 C

1004.2 hpa

84 %

1.6 km/h aus 107

4.8 km/h aus ESE

15.4 C

18.6 C

18.2 C

18.6 C

0 W/m

0.00 mm

01:10

18.2 C

1004.2 hpa

85 %

1.6 km/h aus 109

6.4 km/h aus ESE

15.6 C

18.6 C

18.2 C

18.6 C

0 W/m

0.00 mm

01:15

18.2 C

1004.4 hpa

84 %

1.6 km/h aus 114

4.8 km/h aus ESE

15.5 C

18.6 C

18.2 C

18.6 C

0 W/m

0.00 mm

01:20

18.3 C

1004.4 hpa

83 %

0.0 km/h aus 114

3.2 km/h aus ESE

15.4 C

18.8 C

18.3 C

18.8 C

0 W/m

0.00 mm

01:25

18.4 C

1004.4 hpa

84 %

0.0 km/h aus 114

1.6 km/h aus ESE

15.7 C

18.9 C

18.4 C

18.9 C

0 W/m

0.00 mm

01:30

18.3 C

1004.9 hpa

84 %

0.0 km/h aus 115

1.6 km/h aus ESE

15.5 C

18.7 C

18.3 C

18.7 C

0 W/m

0.00 mm

01:35

18.1 C

1004.9 hpa

86 %

0.0 km/h aus 114

1.6 km/h aus ESE

15.7 C

18.4 C

18.1 C

18.4 C

0 W/m

0.00 mm

01:40

17.9 C

1004.9 hpa

87 %

0.0 km/h aus 107

3.2 km/h aus ESE

15.7 C

18.3 C

17.9 C

18.3 C

0 W/m

0.00 mm

01:45

17.8 C

1004.8 hpa

88 %

0.0 km/h aus 113

4.8 km/h aus ESE

15.8 C

18.2 C

17.8 C

18.2 C

0 W/m

0.00 mm

01:50

17.7 C

1004.8 hpa

89 %

0.0 km/h aus 111

3.2 km/h aus ESE

15.9 C

18.2 C

17.7 C

18.2 C

0 W/m

0.00 mm

01:55

17.6 C

1004.8 hpa

89 %

0.0 km/h aus 107

3.2 km/h aus ESE

15.8 C

18.0 C

17.6 C

18.0 C

0 W/m

0.25 mm

02:00

17.7 C

1004.5 hpa

89 %

0.0 km/h aus 106

1.6 km/h aus ESE

15.8 C

18.1 C

17.7 C

18.1 C

0 W/m

0.00 mm

02:05

17.6 C

1004.5 hpa

90 %

1.6 km/h aus 105

4.8 km/h aus ESE

16.0 C

18.1 C

17.6 C

18.1 C

0 W/m

0.00 mm

02:10

17.6 C

1004.5 hpa

90 %

0.0 km/h aus 113

4.8 km/h aus ESE

15.9 C

18.0 C

17.6 C

18.0 C

0 W/m

0.00 mm

02:15

17.6 C

1004.3 hpa

90 %

0.0 km/h aus 111

3.2 km/h aus ESE

16.0 C

18.1 C

17.6 C

18.1 C

0 W/m

0.00 mm

02:20

17.6 C

1004.3 hpa

90 %

0.0 km/h aus 111

1.6 km/h aus ESE

15.9 C

18.0 C

17.6 C

18.0 C

0 W/m

0.00 mm

02:25

17.5 C

1004.3 hpa

91 %

1.6 km/h aus 111

4.8 km/h aus ESE

16.0 C

17.9 C

17.5 C

17.9 C

0 W/m

0.00 mm

02:30

17.6 C

1004.2 hpa

91 %

1.6 km/h aus 106

4.8 km/h aus ESE

16.1 C

18.0 C

17.6 C

18.0 C

0 W/m

0.00 mm

02:35

17.6 C

1004.2 hpa

91 %

3.2 km/h aus 109

6.4 km/h aus ESE

16.1 C

18.0 C

17.6 C

18.0 C

0 W/m

0.25 mm

02:40

17.6 C

1004.2 hpa

91 %

3.2 km/h aus 109

6.4 km/h aus ESE

16.1 C

18.0 C

17.6 C

18.0 C

0 W/m

0.00 mm

02:45

17.6 C

1003.9 hpa

91 %

3.2 km/h aus 107

9.7 km/h aus ESE

16.1 C

18.0 C

17.6 C

18.0 C

0 W/m

0.25 mm

02:50

17.6 C

1003.9 hpa

92 %

6.4 km/h aus 110

11.3 km/h aus E

16.2 C

18.0 C

17.6 C

18.0 C

0 W/m

0.00 mm

02:55

17.6 C

1003.9 hpa

92 %

8.0 km/h aus 109

11.3 km/h aus ENE

16.3 C

18.1 C

17.6 C

18.1 C

0 W/m

0.00 mm

03:00

17.6 C

1003.7 hpa

92 %

6.4 km/h aus 108

12.9 km/h aus E

16.3 C

18.1 C

17.6 C

18.1 C

0 W/m

0.25 mm

03:05

17.6 C

1003.7 hpa

92 %

1.6 km/h aus 111

6.4 km/h aus E

16.3 C

18.1 C

17.6 C

18.1 C

0 W/m

0.00 mm

03:10

17.6 C

1003.7 hpa

92 %

4.8 km/h aus 112

8.0 km/h aus E

16.3 C

18.1 C

17.6 C

18.1 C

0 W/m

0.00 mm

03:15

17.6 C

1003.9 hpa

92 %

0.0 km/h aus 112

3.2 km/h aus E

16.2 C

18.0 C

17.6 C

18.0 C

0 W/m

0.00 mm

03:20

17.6 C

1003.9 hpa

92 %

0.0 km/h aus 113

1.6 km/h aus E

16.2 C

18.0 C

17.6 C

18.0 C

0 W/m

0.00 mm

03:25

17.6 C

1003.9 hpa

92 %

1.6 km/h aus 107

9.7 km/h aus W

16.2 C

18.0 C

17.6 C

18.0 C

0 W/m

0.00 mm

03:30

17.6 C

1004.3 hpa

93 %

4.8 km/h aus 106

8.0 km/h aus W

16.4 C

18.1 C

17.6 C

18.1 C

0 W/m

0.00 mm

03:35

17.6 C

1004.3 hpa

93 %

3.2 km/h aus 109

6.4 km/h aus W

16.4 C

18.1 C

17.6 C

18.1 C

0 W/m

0.00 mm

03:40

17.6 C

1004.3 hpa

93 %

3.2 km/h aus 109

6.4 km/h aus W

16.5 C

18.1 C

17.6 C

18.1 C

0 W/m

0.00 mm

03:45

17.6 C

1004.3 hpa

93 %

4.8 km/h aus 106

8.0 km/h aus W

16.5 C

18.1 C

17.6 C

18.1 C

0 W/m

0.00 mm

03:50

17.7 C

1004.3 hpa

93 %

3.2 km/h aus 105

8.0 km/h aus SW

16.5 C

18.2 C

17.7 C

18.2 C

0 W/m

0.00 mm

03:55

17.6 C

1004.3 hpa

93 %

4.8 km/h aus 106

9.7 km/h aus SW

16.5 C

18.1 C

17.6 C

18.1 C

0 W/m

0.00 mm

04:00

17.6 C

1004.3 hpa

93 %

4.8 km/h aus 102

6.4 km/h aus SW

16.5 C

18.1 C

17.6 C

18.1 C

0 W/m

0.00 mm

04:05

17.6 C

1004.3 hpa

93 %

3.2 km/h aus 105

6.4 km/h aus SW

16.4 C

18.1 C

17.6 C

18.1 C

0 W/m

0.25 mm

04:10

17.5 C

1004.3 hpa

93 %

0.0 km/h aus 95

3.2 km/h aus SW

16.4 C

17.9 C

17.5 C

17.9 C

0 W/m

0.00 mm

04:15

17.5 C

1004.1 hpa

93 %

0.0 km/h aus 101

3.2 km/h aus SW

16.4 C

17.9 C

17.5 C

17.9 C

0 W/m

0.00 mm

04:20

17.4 C

1004.1 hpa

93 %

0.0 km/h aus 102

1.6 km/h aus SW

16.3 C

17.9 C

17.4 C

17.9 C

0 W/m

0.00 mm

04:25

17.4 C

1004.1 hpa

94 %

0.0 km/h aus 107

0.0 km/h aus ---

16.4 C

17.8 C

17.4 C

17.8 C

0 W/m

0.00 mm

04:30

17.4 C

1004.2 hpa

94 %

0.0 km/h aus 105

1.6 km/h aus SW

16.4 C

17.8 C

17.4 C

17.8 C

0 W/m

0.25 mm

04:35

17.4 C

1004.2 hpa

94 %

0.0 km/h aus 101

1.6 km/h aus SW

16.4 C

17.8 C

17.4 C

17.8 C

0 W/m

0.00 mm

04:40

17.4 C

1004.2 hpa

94 %

0.0 km/h aus 107

3.2 km/h aus SW

16.4 C

17.8 C

17.4 C

17.8 C

0 W/m

0.00 mm

04:45

17.4 C

1004.0 hpa

94 %

0.0 km/h aus 99

3.2 km/h aus SW

16.5 C

17.9 C

17.4 C

17.9 C

0 W/m

0.00 mm

04:50

17.4 C

1004.0 hpa

94 %

0.0 km/h aus 104

1.6 km/h aus SW

16.5 C

17.9 C

17.4 C

17.9 C

0 W/m

0.00 mm

04:55

17.4 C

1004.0 hpa

94 %

3.2 km/h aus 103

8.0 km/h aus SW

16.5 C

17.9 C

17.4 C

17.9 C

0 W/m

0.00 mm

05:00

17.5 C

1004.1 hpa

94 %

8.0 km/h aus 102

11.3 km/h aus SSW

16.5 C

18.0 C

17.5 C

18.0 C

0 W/m

0.00 mm

05:05

17.4 C

1004.1 hpa

94 %

3.2 km/h aus 112

9.7 km/h aus SSW

16.5 C

17.9 C

17.4 C

17.9 C

0 W/m

0.00 mm

05:10

17.4 C

1004.1 hpa

94 %

1.6 km/h aus 112

4.8 km/h aus SSW

16.5 C

17.9 C

17.4 C

17.9 C

0 W/m

0.00 mm

05:15

17.4 C

1003.9 hpa

94 %

1.6 km/h aus 110

4.8 km/h aus SSW

16.5 C

17.9 C

17.4 C

17.9 C

0 W/m

0.00 mm

05:20

17.5 C

1003.9 hpa

94 %

3.2 km/h aus 112

6.4 km/h aus SSW

16.5 C

18.0 C

17.5 C

18.0 C

0 W/m

0.00 mm

05:25

17.5 C

1003.9 hpa

94 %

3.2 km/h aus 113

14.5 km/h aus SSW

16.5 C

18.0 C

17.5 C

18.0 C

0 W/m

0.00 mm

05:30

17.4 C

1004.3 hpa

94 %

9.7 km/h aus 104

20.9 km/h aus SSW

16.4 C

17.8 C

17.4 C

17.8 C

0 W/m

0.00 mm

05:35

17.3 C

1004.3 hpa

94 %

6.4 km/h aus 108

19.3 km/h aus SW

16.3 C

17.7 C

17.3 C

17.7 C

0 W/m

0.00 mm

05:40

17.2 C

1004.3 hpa

94 %

8.0 km/h aus 106

16.1 km/h aus W

16.2 C

17.6 C

17.2 C

17.6 C

0 W/m

0.00 mm

05:45

17.0 C

1004.4 hpa

94 %

9.7 km/h aus 104

17.7 km/h aus W

16.0 C

17.4 C

17.0 C

17.4 C

0 W/m

0.00 mm

05:50

16.9 C

1004.4 hpa

94 %

6.4 km/h aus 115

17.7 km/h aus WNW

16.0 C

17.3 C

16.9 C

17.3 C

0 W/m

0.51 mm

05:55

16.8 C

1004.4 hpa

94 %

12.9 km/h aus 106

22.5 km/h aus NW

15.8 C

16.6 C

16.2 C

17.2 C

0 W/m

0.51 mm

06:00

16.6 C

1004.8 hpa

94 %

9.7 km/h aus 107

22.5 km/h aus WNW

15.6 C

16.9 C

16.6 C

16.9 C

0 W/m

0.76 mm

06:05

16.4 C

1004.8 hpa

94 %

9.7 km/h aus 106

19.3 km/h aus W

15.5 C

16.7 C

16.4 C

16.8 C

0 W/m

0.25 mm

06:10

16.3 C

1004.8 hpa

94 %

6.4 km/h aus 102

16.1 km/h aus W

15.4 C

16.7 C

16.3 C

16.7 C

0 W/m

0.25 mm

06:15

16.3 C

1004.5 hpa

94 %

4.8 km/h aus 106

16.1 km/h aus SW

15.4 C

16.7 C

16.3 C

16.7 C

0 W/m

0.25 mm

06:20

16.3 C

1004.5 hpa

94 %

4.8 km/h aus 109

11.3 km/h aus WSW

15.3 C

16.6 C

16.3 C

16.6 C

0 W/m

0.00 mm

06:25

16.3 C

1004.5 hpa

94 %

4.8 km/h aus 102

9.7 km/h aus W

15.3 C

16.6 C

16.3 C

16.6 C

0 W/m

0.00 mm

06:30

16.3 C

1004.5 hpa

94 %

4.8 km/h aus 105

11.3 km/h aus WSW

15.3 C

16.6 C

16.3 C

16.6 C

0 W/m

0.25 mm

06:35

16.3 C

1004.5 hpa

94 %

4.8 km/h aus 109

8.0 km/h aus WSW

15.3 C

16.6 C

16.3 C

16.6 C

0 W/m

0.25 mm

06:40

16.3 C

1004.5 hpa

94 %

3.2 km/h aus 107

9.7 km/h aus WSW

15.3 C

16.6 C

16.3 C

16.6 C

0 W/m

0.25 mm

06:45

16.3 C

1004.8 hpa

94 %

4.8 km/h aus 109

8.0 km/h aus WSW

15.3 C

16.6 C

16.3 C

16.6 C

0 W/m

0.00 mm

06:50

16.3 C

1004.8 hpa

94 %

3.2 km/h aus 104

9.7 km/h aus W

15.3 C

16.6 C

16.3 C

16.6 C

0 W/m

0.00 mm

06:55

16.3 C

1004.8 hpa

94 %

3.2 km/h aus 110

8.0 km/h aus W

15.3 C

16.6 C

16.3 C

16.6 C

0 W/m

0.00 mm

07:00

16.3 C

1004.8 hpa

94 %

3.2 km/h aus 107

6.4 km/h aus W

15.3 C

16.6 C

16.3 C

16.6 C

0 W/m

0.00 mm

07:05

16.3 C

1004.8 hpa

94 %

3.2 km/h aus 109

6.4 km/h aus W

15.3 C

16.6 C

16.3 C

16.6 C

0 W/m

0.00 mm

07:10

16.3 C

1004.8 hpa

94 %

3.2 km/h aus 113

6.4 km/h aus W

15.3 C

16.6 C

16.3 C

16.6 C

0 W/m

0.00 mm

07:15

16.3 C

1005.3 hpa

94 %

4.8 km/h aus 110

8.0 km/h aus W

15.3 C

16.6 C

16.3 C

16.6 C

0 W/m

0.00 mm

07:20

16.3 C

1005.3 hpa

95 %

3.2 km/h aus 112

8.0 km/h aus W

15.5 C

16.6 C

16.3 C

16.6 C

0 W/m

0.00 mm

07:25

16.3 C

1005.3 hpa

94 %

1.6 km/h aus 110

6.4 km/h aus W

15.3 C

16.6 C

16.3 C

16.6 C

0 W/m

0.00 mm

07:30

16.3 C

1005.4 hpa

95 %

3.2 km/h aus 111

6.4 km/h aus W

15.5 C

16.7 C

16.3 C

16.7 C

0 W/m

0.00 mm

07:35

16.4 C

1005.4 hpa

95 %

1.6 km/h aus 111

8.0 km/h aus W

15.6 C

16.8 C

16.4 C

16.8 C

0 W/m

0.00 mm

07:40

16.4 C

1005.4 hpa

95 %

4.8 km/h aus 101

12.9 km/h aus S

15.6 C

16.8 C

16.4 C

16.8 C

0 W/m

0.00 mm

07:45

16.4 C

1005.4 hpa

95 %

3.2 km/h aus 105

8.0 km/h aus S

15.6 C

16.8 C

16.4 C

16.8 C

0 W/m

0.00 mm

07:50

16.4 C

1005.4 hpa

95 %

6.4 km/h aus 111

17.7 km/h aus SSW

15.6 C

16.7 C

16.4 C

16.7 C

0 W/m

0.00 mm

07:55

16.3 C

1005.4 hpa

94 %

6.4 km/h aus 112

16.1 km/h aus SSW

15.4 C

16.7 C

16.3 C

16.7 C

0 W/m

0.00 mm

08:00

16.4 C

1005.4 hpa

95 %

9.7 km/h aus 108

19.3 km/h aus S

15.6 C

16.7 C

16.3 C

16.7 C

0 W/m

0.00 mm

08:05

16.6 C

1005.4 hpa

95 %

9.7 km/h aus 108

17.7 km/h aus S

15.8 C

16.9 C

16.6 C

16.9 C

0 W/m

0.00 mm

08:10

16.4 C

1005.4 hpa

94 %

12.9 km/h aus 106

22.5 km/h aus S

15.5 C

16.1 C

15.8 C

16.8 C

0 W/m

0.00 mm

08:15

16.4 C

1005.4 hpa

94 %

9.7 km/h aus 106

22.5 km/h aus SSW

15.4 C

16.7 C

16.3 C

16.7 C

0 W/m

0.00 mm

08:20

16.4 C

1005.4 hpa

94 %

9.7 km/h aus 107

16.1 km/h aus S

15.5 C

16.7 C

16.4 C

16.8 C

0 W/m

0.00 mm

08:25

16.5 C

1005.4 hpa

94 %

14.5 km/h aus 104

24.1 km/h aus S

15.5 C

15.7 C

15.4 C

16.8 C

0 W/m

0.00 mm

08:30

16.5 C

1005.6 hpa

94 %

16.1 km/h aus 105

27.4 km/h aus S

15.5 C

15.3 C

14.9 C

16.8 C

0 W/m

0.00 mm

08:35

16.5 C

1005.6 hpa

93 %

12.9 km/h aus 104

22.5 km/h aus SSW

15.4 C

16.2 C

15.8 C

16.8 C

0 W/m

0.00 mm

08:40

16.5 C

1005.6 hpa

93 %

11.3 km/h aus 112

19.3 km/h aus SSW

15.4 C

16.6 C

16.3 C

16.8 C

0 W/m

0.00 mm

08:45

16.5 C

1005.8 hpa

93 %

14.5 km/h aus 107

24.1 km/h aus SSW

15.4 C

15.7 C

15.4 C

16.8 C

0 W/m

0.00 mm

08:50

16.5 C

1005.8 hpa

92 %

14.5 km/h aus 110

24.1 km/h aus S

15.2 C

15.7 C

15.4 C

16.8 C

0 W/m

0.00 mm

08:55

16.6 C

1005.8 hpa

92 %

11.3 km/h aus 105

19.3 km/h aus SSW

15.3 C

16.7 C

16.3 C

16.9 C

0 W/m

0.00 mm

09:00

16.6 C

1005.9 hpa

92 %

12.9 km/h aus 111

22.5 km/h aus SW

15.3 C

16.3 C

15.9 C

16.9 C

0 W/m

0.00 mm

09:05

16.7 C

1005.9 hpa

91 %

11.3 km/h aus 110

20.9 km/h aus S

15.2 C

16.8 C

16.5 C

16.9 C

0 W/m

0.00 mm

09:10

16.7 C

1005.9 hpa

91 %

9.7 km/h aus 107

19.3 km/h aus SSW

15.2 C

16.9 C

16.7 C

16.9 C

0 W/m

0.00 mm

09:15

16.6 C

1005.9 hpa

91 %

11.3 km/h aus 105

20.9 km/h aus SW

15.1 C

16.7 C

16.4 C

16.9 C

0 W/m

0.00 mm

09:20

16.7 C

1005.9 hpa

91 %

12.9 km/h aus 113

25.7 km/h aus SSW

15.2 C

16.3 C

16.1 C

16.9 C

0 W/m

0.00 mm

09:25

16.7 C

1005.9 hpa

90 %

9.7 km/h aus 110

20.9 km/h aus SW

15.1 C

17.0 C

16.7 C

17.0 C

0 W/m

0.00 mm

09:30

16.8 C

1006.0 hpa

90 %

9.7 km/h aus 111

17.7 km/h aus S

15.1 C

17.1 C

16.8 C

17.1 C

0 W/m

0.00 mm

09:35

16.8 C

1006.0 hpa

90 %

14.5 km/h aus 106

29.0 km/h aus SW

15.1 C

15.9 C

15.7 C

17.1 C

0 W/m

0.00 mm

09:40

16.8 C

1006.0 hpa

89 %

16.1 km/h aus 108

29.0 km/h aus SW

15.0 C

15.7 C

15.4 C

17.1 C

0 W/m

0.00 mm

09:45

16.9 C

1006.2 hpa

88 %

14.5 km/h aus 113

20.9 km/h aus SW

14.9 C

16.2 C

15.9 C

17.2 C

0 W/m

0.00 mm

09:50

17.1 C

1006.2 hpa

88 %

9.7 km/h aus 108

19.3 km/h aus SW

15.1 C

17.4 C

17.1 C

17.4 C

0 W/m

0.00 mm

09:55

17.1 C

1006.2 hpa

87 %

16.1 km/h aus 108

25.7 km/h aus S

14.9 C

15.9 C

15.6 C

17.3 C

0 W/m

0.00 mm

10:00

17.3 C

1006.4 hpa

87 %

9.7 km/h aus 106

19.3 km/h aus SSW

15.1 C

17.6 C

17.3 C

17.6 C

0 W/m

0.00 mm

10:05

17.3 C

1006.4 hpa

86 %

17.7 km/h aus 108

30.6 km/h aus SSW

14.9 C

15.8 C

15.5 C

17.6 C

0 W/m

0.00 mm

10:10

17.4 C

1006.4 hpa

86 %

14.5 km/h aus 105

25.7 km/h aus S

15.1 C

16.8 C

16.5 C

17.8 C

0 W/m

0.00 mm

10:15

17.3 C

1006.4 hpa

83 %

20.9 km/h aus 105

29.0 km/h aus S

14.4 C

15.2 C

14.9 C

17.6 C

0 W/m

0.00 mm

10:20

17.4 C

1006.4 hpa

83 %

20.9 km/h aus 112

33.8 km/h aus SSW

14.5 C

15.3 C

15.0 C

17.7 C

0 W/m

0.25 mm

10:25

17.9 C

1006.4 hpa

83 %

17.7 km/h aus 114

33.8 km/h aus WSW

15.0 C

16.5 C

16.2 C

18.2 C

0 W/m

0.00 mm

10:30

18.2 C

1006.3 hpa

82 %

16.1 km/h aus 111

30.6 km/h aus SSW

15.1 C

17.4 C

17.0 C

18.6 C

0 W/m

0.00 mm

10:35

18.3 C

1006.3 hpa

79 %

19.3 km/h aus 109

35.4 km/h aus SSW

14.6 C

16.7 C

16.4 C

18.7 C

0 W/m

0.00 mm

10:40

18.3 C

1006.3 hpa

79 %

22.5 km/h aus 111

43.5 km/h aus SSW

14.6 C

16.2 C

15.9 C

18.7 C

0 W/m

0.00 mm

10:45

18.6 C

1006.6 hpa

77 %

22.5 km/h aus 114

38.6 km/h aus SSW

14.4 C

16.4 C

16.1 C

18.8 C

0 W/m

0.00 mm

10:50

18.7 C

1006.6 hpa

77 %

20.9 km/h aus 110

33.8 km/h aus SSW

14.6 C

16.8 C

16.5 C

19.0 C

0 W/m

0.00 mm

10:55

18.7 C

1006.6 hpa

76 %

19.3 km/h aus 108

32.2 km/h aus SSW

14.3 C

17.1 C

16.8 C

18.9 C

0 W/m

0.00 mm

11:00

18.6 C

1006.8 hpa

76 %

16.1 km/h aus 111

29.0 km/h aus SSW

14.3 C

17.7 C

17.4 C

18.9 C

0 W/m

0.00 mm

11:05

18.6 C

1006.8 hpa

78 %

14.5 km/h aus 112

24.1 km/h aus SW

14.6 C

18.1 C

17.8 C

18.9 C

0 W/m

0.00 mm

11:10

18.9 C

1006.8 hpa

78 %

12.9 km/h aus 111

25.7 km/h aus S

15.0 C

19.1 C

18.6 C

19.4 C

0 W/m

0.00 mm

11:15

18.9 C

1006.9 hpa

77 %

20.9 km/h aus 109

37.0 km/h aus SW

14.8 C

17.2 C

16.8 C

19.3 C

0 W/m

0.00 mm

11:20

19.2 C

1006.9 hpa

76 %

19.3 km/h aus 111

33.8 km/h aus SSW

14.8 C

17.7 C

17.3 C

19.6 C

0 W/m

0.00 mm

11:25

19.3 C

1006.9 hpa

76 %

20.9 km/h aus 112

38.6 km/h aus SSW

14.9 C

17.6 C

17.2 C

19.7 C

0 W/m

0.00 mm

11:30

19.5 C

1007.0 hpa

77 %

19.3 km/h aus 115

35.4 km/h aus SW

15.4 C

18.2 C

17.7 C

20.0 C

0 W/m

0.00 mm

11:35

19.7 C

1007.0 hpa

76 %

19.3 km/h aus 110

29.0 km/h aus SSW

15.3 C

18.4 C

17.9 C

20.2 C

0 W/m

0.00 mm

11:40

20.1 C

1007.0 hpa

76 %

17.7 km/h aus 113

30.6 km/h aus SSW

15.7 C

19.2 C

18.6 C

20.6 C

0 W/m

0.00 mm

11:45

19.8 C

1007.0 hpa

74 %

20.9 km/h aus 113

35.4 km/h aus S

15.1 C

18.3 C

17.8 C

20.3 C

0 W/m

0.00 mm

11:50

19.8 C

1007.0 hpa

73 %

20.9 km/h aus 109

33.8 km/h aus S

14.8 C

18.2 C

17.8 C

20.2 C

0 W/m

0.00 mm

11:55

19.5 C

1007.0 hpa

74 %

19.3 km/h aus 114

30.6 km/h aus S

14.7 C

18.1 C

17.7 C

19.9 C

0 W/m

0.00 mm

12:00

19.7 C

1006.9 hpa

75 %

19.3 km/h aus 112

27.4 km/h aus SSW

15.1 C

18.3 C

17.9 C

20.1 C

0 W/m

0.00 mm

12:05

20.0 C

1006.9 hpa

75 %

16.1 km/h aus 108

29.0 km/h aus S

15.4 C

19.3 C

18.8 C

20.5 C

0 W/m

0.00 mm

12:10

20.2 C

1006.9 hpa

73 %

17.7 km/h aus 111

29.0 km/h aus SSW

15.2 C

19.2 C

18.7 C

20.6 C

0 W/m

0.00 mm

12:15

20.3 C

1007.0 hpa

72 %

17.7 km/h aus 114

30.6 km/h aus S

15.1 C

19.2 C

18.8 C

20.7 C

0 W/m

0.00 mm

12:20

20.4 C

1007.0 hpa

71 %

17.7 km/h aus 111

30.6 km/h aus SW

15.0 C

19.3 C

19.0 C

20.7 C

0 W/m

0.00 mm

12:25

19.9 C

1007.0 hpa

71 %

14.5 km/h aus 112

27.4 km/h aus SW

14.5 C

19.5 C

19.2 C

20.3 C

0 W/m

0.00 mm

12:30

19.4 C

1007.3 hpa

73 %

16.1 km/h aus 112

24.1 km/h aus S

14.5 C

18.7 C

18.3 C

19.8 C

0 W/m

0.00 mm

12:35

19.3 C

1007.3 hpa

75 %

16.1 km/h aus 117

27.4 km/h aus SSW

14.8 C

18.6 C

18.2 C

19.7 C

0 W/m

0.00 mm

12:40

20.1 C

1007.3 hpa

74 %

11.3 km/h aus 113

20.9 km/h aus SSW

15.3 C

20.6 C

20.1 C

20.6 C

0 W/m

0.00 mm

12:45

20.7 C

1007.4 hpa

73 %

17.7 km/h aus 112

32.2 km/h aus S

15.7 C

19.6 C

19.2 C

21.1 C

0 W/m

0.00 mm

12:50

21.4 C

1007.4 hpa

67 %

17.7 km/h aus 111

29.0 km/h aus S

15.0 C

19.9 C

19.9 C

21.4 C

0 W/m

0.00 mm

12:55

21.4 C

1007.4 hpa

66 %

19.3 km/h aus 111

30.6 km/h aus S

14.8 C

19.7 C

19.7 C

21.4 C

0 W/m

0.00 mm

13:00

21.3 C

1007.3 hpa

66 %

14.5 km/h aus 114

24.1 km/h aus WSW

14.7 C

20.5 C

20.6 C

21.3 C

0 W/m

0.00 mm

13:05

21.2 C

1007.3 hpa

65 %

12.9 km/h aus 114

27.4 km/h aus WSW

14.4 C

20.8 C

20.9 C

21.1 C

0 W/m

0.00 mm

13:10

21.3 C

1007.3 hpa

68 %

12.9 km/h aus 115

22.5 km/h aus SSW

15.1 C

21.0 C

21.0 C

21.3 C

0 W/m

0.00 mm

13:15

21.4 C

1007.0 hpa

66 %

11.3 km/h aus 115

27.4 km/h aus S

14.8 C

21.3 C

21.4 C

21.3 C

0 W/m

0.00 mm

13:20

20.8 C

1007.0 hpa

66 %

9.7 km/h aus 116

25.7 km/h aus SW

14.2 C

20.8 C

20.8 C

20.8 C

0 W/m

0.00 mm

13:25

21.3 C

1007.0 hpa

66 %

9.7 km/h aus 115

19.3 km/h aus W

14.7 C

21.3 C

21.3 C

21.3 C

0 W/m

0.00 mm

13:30

21.6 C

1007.0 hpa

65 %

11.3 km/h aus 113

20.9 km/h aus WSW

14.7 C

21.5 C

21.6 C

21.5 C

0 W/m

0.00 mm

13:35

21.2 C

1007.0 hpa

67 %

9.7 km/h aus 111

22.5 km/h aus S

14.8 C

21.2 C

21.2 C

21.2 C

0 W/m

0.00 mm

13:40

20.9 C

1007.0 hpa

66 %

11.3 km/h aus 113

20.9 km/h aus SSW

14.3 C

20.8 C

20.9 C

20.8 C

0 W/m

0.00 mm

13:45

21.4 C

1006.9 hpa

67 %

9.7 km/h aus 113

17.7 km/h aus SW

15.0 C

21.4 C

21.4 C

21.4 C

0 W/m

0.00 mm

13:50

22.2 C

1006.9 hpa

65 %

11.3 km/h aus 113

20.9 km/h aus SSW

15.3 C

22.3 C

22.2 C

22.3 C

0 W/m

0.00 mm

13:55

22.2 C

1006.9 hpa

63 %

12.9 km/h aus 113

22.5 km/h aus S

14.8 C

21.9 C

21.9 C

22.2 C

0 W/m

0.00 mm

14:00

21.5 C

1006.9 hpa

64 %

12.9 km/h aus 116

27.4 km/h aus SSW

14.4 C

21.1 C

21.2 C

21.4 C

0 W/m

0.00 mm

14:05

21.1 C

1006.9 hpa

64 %

11.3 km/h aus 117

22.5 km/h aus SSW

14.0 C

20.9 C

21.1 C

20.9 C

0 W/m

0.00 mm

14:10

20.8 C

1006.9 hpa

65 %

12.9 km/h aus 114

29.0 km/h aus SSW

14.0 C

20.4 C

20.5 C

20.7 C

0 W/m

0.00 mm

14:15

20.6 C

1006.7 hpa

66 %

9.7 km/h aus 112

20.9 km/h aus SSW

14.0 C

20.6 C

20.6 C

20.6 C

0 W/m

0.00 mm

14:20

20.2 C

1006.7 hpa

70 %

8.0 km/h aus 108

14.5 km/h aus SW

14.6 C

20.5 C

20.2 C

20.5 C

0 W/m

0.00 mm

14:25

19.9 C

1006.7 hpa

71 %

8.0 km/h aus 112

17.7 km/h aus SSW

14.5 C

20.3 C

19.9 C

20.3 C

0 W/m

0.00 mm

14:30

20.1 C

1006.9 hpa

72 %

9.7 km/h aus 114

17.7 km/h aus SW

14.9 C

20.5 C

20.1 C

20.5 C

0 W/m

0.00 mm

14:35

21.0 C

1006.9 hpa

68 %

11.3 km/h aus 107

19.3 km/h aus S

14.9 C

21.0 C

21.0 C

21.0 C

0 W/m

0.00 mm

14:40

21.1 C

1006.9 hpa

67 %

12.9 km/h aus 116

22.5 km/h aus WSW

14.7 C

20.8 C

20.8 C

21.1 C

0 W/m

0.00 mm

14:45

20.9 C

1006.9 hpa

66 %

12.9 km/h aus 114

22.5 km/h aus SSW

14.4 C

20.5 C

20.6 C

20.8 C

0 W/m

0.00 mm

14:50

20.7 C

1006.9 hpa

66 %

9.7 km/h aus 111

17.7 km/h aus SW

14.1 C

20.7 C

20.7 C

20.7 C

0 W/m

0.00 mm

14:55

20.6 C

1006.9 hpa

68 %

4.8 km/h aus 106

14.5 km/h aus WSW

14.5 C

20.7 C

20.6 C

20.7 C

0 W/m

0.00 mm

15:00

20.4 C

1006.9 hpa

70 %

3.2 km/h aus 114

9.7 km/h aus WNW

14.8 C

20.7 C

20.4 C

20.7 C

0 W/m

0.00 mm

15:05

20.1 C

1006.9 hpa

71 %

6.4 km/h aus 107

20.9 km/h aus SW

14.7 C

20.4 C

20.1 C

20.4 C

0 W/m

0.00 mm

15:10

19.8 C

1006.9 hpa

72 %

8.0 km/h aus 112

17.7 km/h aus SSW

14.6 C

20.2 C

19.8 C

20.2 C

0 W/m

0.00 mm

15:15

19.9 C

1006.8 hpa

73 %

6.4 km/h aus 113

11.3 km/h aus SSW

14.9 C

20.3 C

19.9 C

20.3 C

0 W/m

0.00 mm

15:20

20.1 C

1006.8 hpa

73 %

4.8 km/h aus 113

11.3 km/h aus SW

15.1 C

20.6 C

20.1 C

20.6 C

0 W/m

0.00 mm

15:25

21.2 C

1006.8 hpa

71 %

4.8 km/h aus 111

9.7 km/h aus SW

15.7 C

21.3 C

21.2 C

21.3 C

0 W/m

0.00 mm

15:30

21.5 C

1006.7 hpa

68 %

9.7 km/h aus 111

16.1 km/h aus SSW

15.3 C

21.6 C

21.5 C

21.6 C

0 W/m

0.00 mm

15:35

21.7 C

1006.7 hpa

66 %

8.0 km/h aus 113

16.1 km/h aus SW

15.1 C

21.7 C

21.7 C

21.7 C

0 W/m

0.00 mm

15:40

21.4 C

1006.7 hpa

67 %

6.4 km/h aus 112

20.9 km/h aus SSW

15.0 C

21.4 C

21.4 C

21.4 C

0 W/m

0.00 mm

15:45

21.2 C

1006.5 hpa

66 %

8.0 km/h aus 112

14.5 km/h aus SSW

14.6 C

21.1 C

21.2 C

21.1 C

0 W/m

0.00 mm

15:50

20.9 C

1006.5 hpa

67 %

6.4 km/h aus 111

9.7 km/h aus SW

14.6 C

20.9 C

20.9 C

20.9 C

0 W/m

0.00 mm

15:55

20.8 C

1006.5 hpa

67 %

9.7 km/h aus 112

19.3 km/h aus SSW

14.5 C

20.8 C

20.8 C

20.8 C

0 W/m

0.00 mm

16:00

20.8 C

1006.4 hpa

67 %

8.0 km/h aus 114

16.1 km/h aus SW

14.5 C

20.8 C

20.8 C

20.8 C

0 W/m

0.00 mm

16:05

20.9 C

1006.4 hpa

67 %

8.0 km/h aus 115

17.7 km/h aus SW

14.6 C

20.9 C

20.9 C

20.9 C

0 W/m

0.00 mm

16:10

21.6 C

1006.4 hpa

65 %

8.0 km/h aus 112

16.1 km/h aus W

14.7 C

21.6 C

21.6 C

21.6 C

0 W/m

0.00 mm

16:15

21.7 C

1006.5 hpa

63 %

11.3 km/h aus 109

20.9 km/h aus SW

14.3 C

21.5 C

21.7 C

21.5 C

0 W/m

0.00 mm

16:20

21.6 C

1006.5 hpa

62 %

16.1 km/h aus 114

29.0 km/h aus SSW

14.0 C

20.2 C

20.4 C

21.3 C

0 W/m

0.00 mm

16:25

21.6 C

1006.5 hpa

62 %

16.1 km/h aus 114

24.1 km/h aus SSW

14.0 C

20.2 C

20.4 C

21.4 C

0 W/m

0.00 mm

16:30

22.0 C

1006.5 hpa

62 %

14.5 km/h aus 116

22.5 km/h aus S

14.4 C

21.2 C

21.2 C

21.9 C

0 W/m

0.00 mm

16:35

22.3 C

1006.5 hpa

60 %

14.5 km/h aus 113

27.4 km/h aus SSW

14.1 C

21.4 C

21.5 C

22.2 C

0 W/m

0.00 mm

16:40

22.2 C

1006.5 hpa

58 %

17.7 km/h aus 114

29.0 km/h aus S

13.5 C

20.6 C

20.7 C

22.0 C

0 W/m

0.00 mm

16:45

22.2 C

1006.5 hpa

58 %

16.1 km/h aus 111

29.0 km/h aus SW

13.5 C

20.8 C

21.0 C

22.0 C

0 W/m

0.00 mm

16:50

22.0 C

1006.5 hpa

58 %

16.1 km/h aus 112

27.4 km/h aus SSW

13.4 C

20.6 C

20.8 C

21.8 C

0 W/m

0.00 mm

16:55

21.8 C

1006.5 hpa

57 %

20.9 km/h aus 113

32.2 km/h aus SSW

12.9 C

19.5 C

19.9 C

21.4 C

0 W/m

0.00 mm

17:00

22.0 C

1006.7 hpa

56 %

19.3 km/h aus 113

32.2 km/h aus SSW

12.8 C

20.0 C

20.3 C

21.7 C

0 W/m

0.00 mm

17:05

21.8 C

1006.7 hpa

57 %

20.9 km/h aus 113

33.8 km/h aus SSW

12.9 C

19.5 C

19.9 C

21.4 C

0 W/m

0.00 mm

17:10

21.6 C

1006.7 hpa

57 %

17.7 km/h aus 109

29.0 km/h aus S

12.7 C

19.7 C

20.2 C

21.2 C

0 W/m

0.00 mm

17:15

21.7 C

1006.6 hpa

58 %

14.5 km/h aus 109

24.1 km/h aus SW

13.0 C

20.5 C

20.9 C

21.3 C

0 W/m

0.00 mm

17:20

22.3 C

1006.6 hpa

57 %

14.5 km/h aus 112

27.4 km/h aus S

13.3 C

21.3 C

21.5 C

22.1 C

0 W/m

0.00 mm

17:25

22.3 C

1006.6 hpa

57 %

16.1 km/h aus 112

27.4 km/h aus SSW

13.4 C

21.1 C

21.2 C

22.2 C

0 W/m

0.00 mm

17:30

22.5 C

1006.9 hpa

57 %

16.1 km/h aus 111

25.7 km/h aus SSW

13.6 C

21.3 C

21.3 C

22.4 C

0 W/m

0.00 mm

17:35

22.4 C

1006.9 hpa

55 %

19.3 km/h aus 115

35.4 km/h aus S

12.9 C

20.6 C

20.7 C

22.2 C

0 W/m

0.00 mm

17:40

21.9 C

1006.9 hpa

54 %

20.9 km/h aus 112

38.6 km/h aus SSE

12.2 C

19.6 C

20.1 C

21.5 C

0 W/m

0.00 mm

17:45

21.7 C

1006.9 hpa

54 %

20.9 km/h aus 112

32.2 km/h aus SSW

12.0 C

19.2 C

19.8 C

21.2 C

0 W/m

0.00 mm

17:50

22.0 C

1006.9 hpa

55 %

17.7 km/h aus 109

33.8 km/h aus SW

12.5 C

20.2 C

20.6 C

21.6 C

0 W/m

0.00 mm

17:55

22.2 C

1006.9 hpa

56 %

20.9 km/h aus 116

33.8 km/h aus S

13.0 C

20.1 C

20.3 C

22.0 C

0 W/m

0.00 mm

18:00

22.2 C

1006.9 hpa

55 %

20.9 km/h aus 113

33.8 km/h aus S

12.7 C

20.0 C

20.3 C

21.9 C

0 W/m

0.00 mm

18:05

21.8 C

1006.9 hpa

55 %

16.1 km/h aus 115

25.7 km/h aus WSW

12.4 C

20.2 C

20.7 C

21.4 C

0 W/m

0.00 mm

18:10

21.7 C

1006.9 hpa

56 %

12.9 km/h aus 113

22.5 km/h aus SSW

12.5 C

20.9 C

21.4 C

21.2 C

0 W/m

0.00 mm

18:15

21.6 C

1007.0 hpa

56 %

14.5 km/h aus 114

29.0 km/h aus S

12.4 C

20.2 C

20.8 C

21.0 C

0 W/m

0.00 mm

18:20

21.4 C

1007.0 hpa

57 %

12.9 km/h aus 113

22.5 km/h aus SSW

12.5 C

20.6 C

21.1 C

20.8 C

0 W/m

0.00 mm

18:25

21.3 C

1007.0 hpa

57 %

14.5 km/h aus 112

27.4 km/h aus SW

12.4 C

19.9 C

20.5 C

20.7 C

0 W/m

0.00 mm

18:30

21.4 C

1006.9 hpa

57 %

11.3 km/h aus 115

25.7 km/h aus S

12.6 C

20.9 C

21.4 C

20.9 C

0 W/m

0.00 mm

18:35

21.4 C

1006.9 hpa

57 %

11.3 km/h aus 109

19.3 km/h aus SSW

12.5 C

20.8 C

21.4 C

20.8 C

0 W/m

0.00 mm

18:40

21.3 C

1006.9 hpa

58 %

12.9 km/h aus 111

27.4 km/h aus SSW

12.7 C

20.5 C

21.0 C

20.8 C

0 W/m

0.00 mm

18:45

21.2 C

1007.3 hpa

58 %

12.9 km/h aus 109

25.7 km/h aus SW

12.6 C

20.4 C

20.9 C

20.7 C

0 W/m

0.00 mm

18:50

21.2 C

1007.3 hpa

58 %

12.9 km/h aus 114

27.4 km/h aus SW

12.6 C

20.3 C

20.9 C

20.6 C

0 W/m

0.00 mm

18:55

21.1 C

1007.3 hpa

59 %

9.7 km/h aus 113

20.9 km/h aus SW

12.8 C

20.6 C

21.1 C

20.6 C

0 W/m

0.00 mm

19:00

21.0 C

1007.0 hpa

58 %

11.3 km/h aus 113

22.5 km/h aus SW

12.4 C

20.4 C

21.0 C

20.4 C

0 W/m

0.00 mm

19:05

21.0 C

1007.0 hpa

58 %

16.1 km/h aus 110

29.0 km/h aus WSW

12.4 C

19.3 C

19.8 C

20.4 C

0 W/m

0.00 mm

19:10

20.9 C

1007.0 hpa

58 %

16.1 km/h aus 111

29.0 km/h aus WSW

12.3 C

19.2 C

19.7 C

20.4 C

0 W/m

0.00 mm

19:15

20.8 C

1007.1 hpa

58 %

14.5 km/h aus 112

25.7 km/h aus SW

12.3 C

19.6 C

20.1 C

20.3 C

0 W/m

0.00 mm

19:20

20.8 C

1007.1 hpa

57 %

12.9 km/h aus 103

27.4 km/h aus SW

12.0 C

19.9 C

20.5 C

20.3 C

0 W/m

0.00 mm

19:25

20.7 C

1007.1 hpa

59 %

11.3 km/h aus 109

25.7 km/h aus SW

12.4 C

20.3 C

20.7 C

20.3 C

0 W/m

0.00 mm

19:30

20.6 C

1007.4 hpa

58 %

11.3 km/h aus 108

22.5 km/h aus SSW

12.0 C

20.1 C

20.6 C

20.1 C

0 W/m

0.00 mm

19:35

20.6 C

1007.4 hpa

58 %

16.1 km/h aus 109

35.4 km/h aus SSW

12.0 C

18.9 C

19.4 C

20.1 C

0 W/m

0.00 mm

19:40

20.5 C

1007.4 hpa

58 %

14.5 km/h aus 110

25.7 km/h aus WSW

12.0 C

19.3 C

19.7 C

20.1 C

0 W/m

0.00 mm

19:45

20.4 C

1007.5 hpa

59 %

9.7 km/h aus 114

24.1 km/h aus SW

12.2 C

20.1 C

20.4 C

20.1 C

0 W/m

0.00 mm

19:50

20.4 C

1007.5 hpa

59 %

14.5 km/h aus 111

25.7 km/h aus SW

12.2 C

19.3 C

19.7 C

20.1 C

0 W/m

0.00 mm

19:55

20.3 C

1007.5 hpa

60 %

12.9 km/h aus 111

25.7 km/h aus WSW

12.3 C

19.7 C

19.9 C

20.1 C

0 W/m

0.00 mm

20:00

20.2 C

1008.0 hpa

60 %

8.0 km/h aus 110

24.1 km/h aus SSW

12.2 C

20.0 C

20.2 C

20.0 C

0 W/m

0.00 mm

20:05

20.1 C

1008.0 hpa

61 %

6.4 km/h aus 112

11.3 km/h aus SW

12.3 C

19.9 C

20.1 C

19.9 C

0 W/m

0.00 mm

20:10

19.9 C

1008.0 hpa

61 %

9.7 km/h aus 110

22.5 km/h aus SW

12.2 C

19.8 C

19.9 C

19.8 C

0 W/m

0.00 mm

20:15

19.9 C

1008.0 hpa

61 %

9.7 km/h aus 110

17.7 km/h aus SW

12.1 C

19.8 C

19.9 C

19.8 C

0 W/m

0.00 mm

20:20

19.9 C

1008.0 hpa

62 %

9.7 km/h aus 111

16.1 km/h aus SW

12.4 C

19.8 C

19.9 C

19.8 C

0 W/m

0.00 mm

20:25

19.8 C

1008.0 hpa

62 %

8.0 km/h aus 113

17.7 km/h aus SSW

12.3 C

19.7 C

19.8 C

19.7 C

0 W/m

0.00 mm

20:30

19.7 C

1008.0 hpa

62 %

11.3 km/h aus 109

25.7 km/h aus SW

12.2 C

19.6 C

19.7 C

19.6 C

0 W/m

0.00 mm

20:35

19.7 C

1008.0 hpa

62 %

11.3 km/h aus 110

17.7 km/h aus SW

12.2 C

19.6 C

19.7 C

19.6 C

0 W/m

0.00 mm

20:40

19.7 C

1008.0 hpa

62 %

11.3 km/h aus 115

17.7 km/h aus SSW

12.2 C

19.6 C

19.7 C

19.6 C

0 W/m

0.00 mm

20:45

19.6 C

1008.4 hpa

63 %

12.9 km/h aus 110

20.9 km/h aus WSW

12.3 C

19.1 C

19.2 C

19.4 C

0 W/m

0.00 mm

20:50

19.4 C

1008.4 hpa

63 %

6.4 km/h aus 110

19.3 km/h aus SSW

12.2 C

19.3 C

19.4 C

19.3 C

0 W/m

0.00 mm

20:55

19.4 C

1008.4 hpa

63 %

12.9 km/h aus 109

27.4 km/h aus SSW

12.2 C

18.9 C

19.1 C

19.3 C

0 W/m

0.00 mm

21:00

19.3 C

1008.5 hpa

64 %

8.0 km/h aus 113

16.1 km/h aus SW

12.3 C

19.2 C

19.3 C

19.2 C

0 W/m

0.00 mm

21:05

19.2 C

1008.5 hpa

64 %

11.3 km/h aus 108

20.9 km/h aus SW

12.2 C

19.1 C

19.2 C

19.1 C

0 W/m

0.00 mm

21:10

19.2 C

1008.5 hpa

65 %

11.3 km/h aus 110

22.5 km/h aus SW

12.4 C

19.1 C

19.2 C

19.1 C

0 W/m

0.00 mm

21:15

19.1 C

1008.7 hpa

65 %

9.7 km/h aus 106

22.5 km/h aus SSW

12.4 C

19.1 C

19.1 C

19.1 C

0 W/m

0.00 mm

21:20

19.1 C

1008.7 hpa

65 %

11.3 km/h aus 111

25.7 km/h aus WSW

12.4 C

19.1 C

19.1 C

19.1 C

0 W/m

0.00 mm

21:25

19.1 C

1008.7 hpa

65 %

19.3 km/h aus 103

37.0 km/h aus SSW

12.3 C

17.2 C

17.2 C

19.0 C

0 W/m

0.00 mm

21:30

18.8 C

1009.1 hpa

64 %

20.9 km/h aus 102

35.4 km/h aus SSW

11.9 C

16.5 C

16.7 C

18.7 C

0 W/m

0.00 mm

21:35

18.4 C

1009.1 hpa

65 %

16.1 km/h aus 110

29.0 km/h aus SSW

11.7 C

17.0 C

17.2 C

18.2 C

0 W/m

0.00 mm

21:40

17.8 C

1009.1 hpa

69 %

14.5 km/h aus 107

27.4 km/h aus WSW

12.1 C

16.8 C

16.9 C

17.7 C

0 W/m

0.00 mm

21:45

17.3 C

1009.5 hpa

72 %

9.7 km/h aus 112

22.5 km/h aus S

12.2 C

17.2 C

17.3 C

17.2 C

0 W/m

0.00 mm

21:50

17.1 C

1009.5 hpa

74 %

11.3 km/h aus 112

25.7 km/h aus WSW

12.4 C

16.8 C

16.9 C

16.9 C

0 W/m

0.00 mm

21:55

16.9 C

1009.5 hpa

75 %

9.7 km/h aus 109

22.5 km/h aus SSW

12.4 C

16.8 C

16.9 C

16.8 C

0 W/m

0.00 mm

22:00

16.8 C

1009.6 hpa

77 %

12.9 km/h aus 109

25.7 km/h aus SSW

12.7 C

16.2 C

16.2 C

16.8 C

0 W/m

0.00 mm

22:05

16.6 C

1009.6 hpa

77 %

11.3 km/h aus 107

20.9 km/h aus SSW

12.6 C

16.4 C

16.4 C

16.6 C

0 W/m

0.00 mm

22:10

16.6 C

1009.6 hpa

78 %

11.3 km/h aus 111

19.3 km/h aus SW

12.7 C

16.3 C

16.3 C

16.6 C

0 W/m

0.00 mm

22:15

16.5 C

1009.7 hpa

78 %

8.0 km/h aus 105

19.3 km/h aus SSW

12.6 C

16.5 C

16.5 C

16.5 C

0 W/m

0.00 mm

22:20

16.4 C

1009.7 hpa

78 %

12.9 km/h aus 108

24.1 km/h aus S

12.6 C

15.8 C

15.8 C

16.4 C

0 W/m

0.00 mm

22:25

16.4 C

1009.7 hpa

78 %

11.3 km/h aus 110

24.1 km/h aus SSW

12.6 C

16.2 C

16.2 C

16.4 C

0 W/m

0.00 mm

22:30

16.4 C

1009.8 hpa

79 %

12.9 km/h aus 110

20.9 km/h aus SSW

12.8 C

15.8 C

15.8 C

16.4 C

0 W/m

0.00 mm

22:35

16.4 C

1009.8 hpa

79 %

11.3 km/h aus 105

22.5 km/h aus SSW

12.8 C

16.2 C

16.2 C

16.4 C

0 W/m

0.00 mm

22:40

16.5 C

1009.8 hpa

79 %

12.9 km/h aus 99

27.4 km/h aus SSW

12.8 C

15.9 C

15.8 C

16.6 C

0 W/m

0.00 mm

22:45

16.5 C

1009.9 hpa

80 %

11.3 km/h aus 108

19.3 km/h aus SSW

13.0 C

16.3 C

16.3 C

16.6 C

0 W/m

0.00 mm

22:50

16.5 C

1009.9 hpa

80 %

11.3 km/h aus 104

19.3 km/h aus SW

13.0 C

16.3 C

16.3 C

16.6 C

0 W/m

0.00 mm

22:55

16.5 C

1009.9 hpa

80 %

11.3 km/h aus 104

22.5 km/h aus SW

13.0 C

16.3 C

16.3 C

16.6 C

0 W/m

0.00 mm

23:00

16.5 C

1010.1 hpa

81 %

9.7 km/h aus 106

19.3 km/h aus SSW

13.2 C

16.6 C

16.4 C

16.6 C

0 W/m

0.00 mm

23:05

16.5 C

1010.1 hpa

81 %

11.3 km/h aus 113

22.5 km/h aus SSW

13.2 C

16.4 C

16.3 C

16.6 C

0 W/m

0.00 mm

23:10

16.5 C

1010.1 hpa

81 %

11.3 km/h aus 111

20.9 km/h aus SSW

13.2 C

16.4 C

16.3 C

16.6 C

0 W/m

0.00 mm

23:15

16.5 C

1010.1 hpa

81 %

11.3 km/h aus 108

19.3 km/h aus SSW

13.2 C

16.4 C

16.3 C

16.6 C

0 W/m

0.00 mm

23:20

16.4 C

1010.1 hpa

81 %

11.3 km/h aus 104

20.9 km/h aus SW

13.2 C

16.3 C

16.2 C

16.5 C

0 W/m

0.00 mm

23:25

16.4 C

1010.1 hpa

82 %

12.9 km/h aus 105

24.1 km/h aus SW

13.4 C

15.9 C

15.8 C

16.6 C

0 W/m

0.00 mm

23:30

16.4 C

1010.2 hpa

82 %

12.9 km/h aus 109

17.7 km/h aus SW

13.3 C

15.8 C

15.7 C

16.5 C

0 W/m

0.00 mm

23:35

16.3 C

1010.2 hpa

82 %

11.3 km/h aus 112

20.9 km/h aus WSW

13.3 C

16.1 C

16.1 C

16.4 C

0 W/m

0.00 mm

23:40

16.3 C

1010.2 hpa

82 %

11.3 km/h aus 102

17.7 km/h aus S

13.2 C

16.1 C

16.0 C

16.3 C

0 W/m

0.00 mm

23:45

16.2 C

1010.3 hpa

83 %

9.7 km/h aus 105

19.3 km/h aus SSW

13.3 C

16.2 C

16.1 C

16.3 C

0 W/m

0.00 mm

23:50

16.2 C

1010.3 hpa

83 %

9.7 km/h aus 105

20.9 km/h aus SSW

13.3 C

16.1 C

16.1 C

16.2 C

0 W/m

0.00 mm

23:55

16.1 C

1010.3 hpa

83 %

12.9 km/h aus 110

20.9 km/h aus SW

13.2 C

15.4 C

15.4 C

16.2 C

0 W/m

0.00 mm